Regional Weather Roundup
Issued by NWS

Home | Current Version | Previous Version | Text Only | Print | Product List | Glossary On
Versions: 1 2 3 4 5 6 7 8 9 10 11 12 13 14 15 16 17 18 19 20 21 22 23 24 25 26 27 28 29 30 31 32 33 34 35 36 37 38 39 40 41 42 43 44 45 46 47 48 49 50
000
ASUS43 KTOP 230308
RWRKS

WEATHER ROUNDUP FOR KANSAS
NATIONAL WEATHER SERVICE GOODLAND KS
1000 PM CDT WED MAR 22 2017

NOTE:  "FAIR" INDICATES FEW OR NO CLOUDS BELOW 12,000 FEET WITH NO
SIGNIFICANT WEATHER AND/OR OBSTRUCTIONS TO VISIBILITY.

KSZ001>006-013>018-027>032-041>047-230400-
NORTHWEST KANSAS

CITY           SKY/WX    TMP DP  RH WIND       PRES   REMARKS
GOODLAND       CLOUDY    46  36  68 SE15      29.93S
HAYS             N/A     48  35  60 SE9       30.05F
HILL CITY      CLOUDY    49  37  63 SE8       30.03F
RUSSELL        MOCLDY    49  34  56 SE7       30.05S
$$

KSZ061>065-074>080-084>089-230400-
SOUTHWEST KANSAS

CITY           SKY/WX    TMP DP  RH WIND       PRES   REMARKS
DODGE CITY     CLOUDY    49  40  71 SE13      30.02R
ELKHART          N/A     55  40  57 SE10        N/A
GARDEN CITY    CLOUDY    50  39  66 SE15      29.99R
GREAT BEND     PTCLDY    47  36  65 E7        30.06F
LIBERAL        MOCLDY    59  43  55 SE13      29.99R
PRATT          CLOUDY    45  37  72 E5        30.06R
$$

KSZ066>073-081>083-090>101-230400-
SOUTHEAST KANSAS

CITY           SKY/WX    TMP DP  RH WIND       PRES   REMARKS
CHANUTE        CLOUDY    56  38  50 SE13      30.15S
COFFEYVILLE    CLOUDY    56  41  57 E9        30.14S
HUTCHINSON     CLEAR     51  38  60 E14       30.08R
MEDICINE LODGE   N/A     53  43  68 E9        30.04R
NEWTON         PTCLDY    50  34  54 E13       30.10S
PARSONS        CLOUDY    56  38  50 VRB6      30.15F
WICHITA INTL   PTCLDY    52  39  61 E13       30.08S
WICHITA JABRA  CLOUDY    51  38  60 E9        30.09S
WICHITA MCCONL CLOUDY    52  38  57 SE9       30.08S
WINFIELD       CLOUDY    56  41  57 E10       30.10S
$$

KSZ007>012-019>026-033>040-048>060-102>105-230400-
NORTHEAST KANSAS

CITY           SKY/WX    TMP DP  RH WIND       PRES   REMARKS
CONCORDIA      CLOUDY    52  28  39 SE14      30.09S
EMPORIA        CLOUDY    54  34  46 SE15G25   30.12F
LAWRENCE       CLOUDY    53  29  39 E13G22    30.17F
MANHATTAN      CLOUDY    55  29  36 SE8       30.12S
MARYSVILLE     CLOUDY    52  30  43 SE12      30.13R
OLATHE IND     CLOUDY    51  28  41 E13       30.18F
OLATHE EXE     CLOUDY    50  28  42 E15       30.18F
SALINA         CLOUDY    56  32  40 SE16      30.10R
TOPEKA BILLARD CLOUDY    54  30  40 E16       30.15F
TOPEKA FORBES  CLOUDY    54  30  40 E13G22    30.14F
$$



USA.gov is the U.S. government's official web portal to all federal, state and local government web resources and services.